This is the latest recevied weather packets stored in our database for station/object KD8PH. If no packets are shown the sender has not sent any weather packets the latest 10 day(s).
| Time | Temp. | Humidity | Pressure | Rain* | Wind** | Luminosity | Snow |
|---|---|---|---|---|---|---|---|
| 1777898139 | 13.89° C | 88% | 1016.3 hPa | 0 mm | - | - | - |
| 1777897540 | 12.78° C | 89% | 1016.2 hPa | 0 mm | - | - | - |
| 1777896937 | 12.22° C | 91% | 1016.3 hPa | 0 mm | - | - | - |
| 1777896334 | 11.67° C | 92% | 1016.3 hPa | 0 mm | - | - | - |
| 1777895739 | 11.11° C | 93% | 1016.1 hPa | 0 mm | - | - | - |
| 1777895138 | 10.56° C | 93% | 1016 hPa | 0 mm | - | - | - |
| 1777894539 | 10° C | 92% | 1016 hPa | 0 mm | - | - | - |
| 1777893943 | 9.44° C | 92% | 1015.8 hPa | 0 mm | - | - | - |
| 1777893346 | 9.44° C | 92% | 1015.7 hPa | 0 mm | - | - | - |
| 1777892739 | 9.44° C | 92% | 1015.7 hPa | 0 mm | - | - | - |
| 1777892147 | 9.44° C | 92% | 1015.6 hPa | 0 mm | - | - | - |
| 1777891538 | 9.44° C | 92% | 1015.6 hPa | 0 mm | - | - | - |
| 1777890940 | 8.89° C | 92% | 1015.6 hPa | 0 mm | - | - | - |
| 1777890342 | 8.89° C | 92% | 1015.5 hPa | 0 mm | - | - | - |
| 1777889742 | 8.89° C | 92% | 1015.5 hPa | 0 mm | - | - | - |
| 1777889148 | 9.44° C | 92% | 1015.5 hPa | 0 mm | - | - | - |
| 1777888535 | 9.44° C | 92% | 1015.5 hPa | 0 mm | - | - | - |
| 1777887937 | 9.44° C | 91% | 1015.6 hPa | 0 mm | - | - | - |
| 1777887338 | 9.44° C | 91% | 1015.6 hPa | 0 mm | - | - | - |
| 1777886738 | 9.44° C | 91% | 1015.6 hPa | 0 mm | - | - | - |
| 1777886141 | 9.44° C | 91% | 1015.5 hPa | 0 mm | - | - | - |
| 1777885541 | 9.44° C | 91% | 1015.4 hPa | 0 mm | - | - | - |
| 1777884947 | 9.44° C | 91% | 1015.3 hPa | 0 mm | - | - | - |
| 1777884351 | 9.44° C | 91% | 1015.3 hPa | 0 mm | - | - | - |
| 1777883756 | 9.44° C | 91% | 1015.3 hPa | 0 mm | - | - | - |
* Rain latest hour (hover to see other rain measurements)
** Current wind speed in m/s (hover to see current wind gust speed)